CZ-4B DEB, 40532

Orbit data source: Space-Track

CZ-4B DEB, 40532 is space debris in LEO originally from a launch on Fri, 25 Oct 2013 UTC launched from the Jiuquan Satellite Launch Center, China (JSC). Debris objects in space refer to the collection of defunct objects orbiting the Earth. Examples of debris include non-operational satellites, rocket bodies, and fragments generated from explosions, collisions, or faulty payload assembly.

Loading next visibility...
Identifier
40532, 2013-057E
Orbit
LEO
Country
Flag of CNCN / PRC
Related business
Manufacturer
SAST
Mission
Spacecraft
Bus & Motor
Unknown
Mass
Unknown
Launch date (UTC)
2013-10-25 (12 years ago)
Launch vehicle
Unknown
Launch site
Jiuquan Satellite Launch Center, China (JSC)
Object type
Payload
Rocket body
Debris
Shape & HBR
Unknown shape, 0.1 m
Radar Cross Section
Small (<0.1 m²)

Expand to show TLE details & history
Last TLE update: 2 days ago

TLE from 2 days ago
0 CZ-4B DEB
1 40532U 13057E   26103.97877696  .00002255  00000-0  40846-3 0  9990
2 40532  74.8679 311.0225 0183902 106.8011 255.3421 14.56325758582149
Epoch: 2026-04-13T23:29Z
TLE epoch observation values (Epoch: 2026-04-13T23:29:26.329Z)
Latitude
-0.00005°
Longitude
116.50116°
Altitude
742.942 km
Speed
7.465 km/s
True Right ascension
20h 44m 05s
True Declination
0° 00' 00"
Sunlit
Object was in daylight at epoch
Visualization orbit readout
Latitude
Unknown
Longitude
Unknown
Altitude
Unknown
Speed
Unknown
Apparent Right ascension
Unknown
Apparent Declination
Unknown
Sunlit
N/A
Visualization observer readout
Local Sidereal Time
03:29:48
Azimuth
Unknown
Elevation
Unknown
Doppler factor
Unknown
Orbital elements
Apogee altitude
832.809 km
Perigee altitude
572.377 km
Semi-major axis
7,080.73 km
Eccentricity
0.01839
Inclination
74.8679°
RAAN
311.0225°
Arg. of periapsis
106.8011°
True anomaly
253.31554°
Mean anomaly
255.3421°
Eccentric anomaly
254.32759°
Mean motion
3.64272 °/min
Orbital period
98.83 mins
BSTAR
0.00040846
Loading maneuver chart data...
Computing Atmospheric mass density...
Loading historical data...
Loading historical data...
Loading historical data...
Loading historical data...
Loading historical data...
Loading historical data...
Loading historical data...
Other satellites on launch #57 in the year 2013 (2013-10-25 UTC)

Documentation

Showing up to 5 results
|